Regional Weather Roundup
Issued by NWS

Home | Current Version | Previous Version | Graphics & Text | Print | Product List | Glossary On
Versions: 1 2 3 4 5 6 7 8 9 10 11 12 13 14 15 16 17 18 19 20 21 22 23 24 25 26 27 28 29 30 31 32 33 34 35 36 37 38 39 40 41 42 43 44 45 46 47 48 49 50
000
ASUS44 KMEG 241910
RWRTN
TENNESSEE HOURLY STATE WEATHER ROUNDUP
NATIONAL WEATHER SERVICE MEMPHIS TN
200 PM CDT TUE MAY 24 2016

TNZ002-004-019-021-049-052-054-088>092-242000-
WEST TENNESSEE

CITY           SKY/WX    TMP DP  RH WIND       PRES   REMARKS
MEMPHIS INTL   MOSUNNY   87  65  47 S13       30.05F
NWS MEMPHIS      N/A     88 N/A N/A MISG        N/A
JACKSON        SUNNY     85  59  41 S8        30.06F
DYERSBURG      PTSUNNY   82  57  42 SW8       30.05R
UNION CITY     SUNNY     82  61  47 S9        30.04R
PARIS          SUNNY     82  59  44 S7        30.06F
LEXINGTON      MOSUNNY   84  55  37 VRB5      30.07F
$$

TNZ008-025-027-028-033-062-065-066-242000-
NORTH MIDDLE TENNESSEE

CITY           SKY/WX    TMP DP  RH WIND       PRES   REMARKS
NASHVILLE      MOSUNNY   87  51  28 S8        30.10F
CLARKSVILLE    SUNNY     81  57  43 VRB7      30.08F
SMYRNA         SUNNY     85  53  33 S6        30.10F
COOKEVILLE     SUNNY     84  52  32 VRB5      30.12F
CROSSVILLE     MOSUNNY   78  50  37 VRB5      30.17F
$$

TNZ061-075-076-078-094-096-097-242000-
SOUTH MIDDLE TENNESSEE

CITY           SKY/WX    TMP DP  RH WIND       PRES   REMARKS
FAYETTEVILLE   SUNNY     82  50  32 VRB6      30.12F
TULLAHOMA      SUNNY     82  50  32 VRB5      30.14F
WINCHESTER     SUNNY     84  52  32 CALM      30.12F
MCMINNVILLE    SUNNY     82  52  34 VRB3      30.12F
COLUMBIA       SUNNY     84  57  39 SW8       30.09F
SHELBYVILLE    SUNNY     88  54  31 SW9       30.12F
$$

TNZ017-018-042-046-047-242000-
NORTHEAST TENNESSEE

CITY           SKY/WX    TMP DP  RH WIND       PRES   REMARKS
TRI CITIES     MOSUNNY   78  52  40 W5        30.15F
$$

TNZ012-013-036-069-073-074-242000-
CENTRAL EAST TENNESSEE

CITY           SKY/WX    TMP DP  RH WIND       PRES   REMARKS
KNOXVILLE      MOSUNNY   81  50  33 W8        30.14F
OAK RIDGE      SUNNY     81  52  36 VRB6      30.14F
GATLINBURG     SUNNY     81  46  30 NW7       30.13F
$$

TNZ083-085-099-242000-
SOUTHEAST TENNESSEE

CITY           SKY/WX    TMP DP  RH WIND       PRES   REMARKS
CHATTANOOGA    PTSUNNY   84  48  28 E5        30.12F
$$

SKY/WX REPORTED AS FAIR MEANS FEW OR NO CLOUDS BELOW
12 THOUSAND FEET.





USA.gov is the U.S. government's official web portal to all federal, state and local government web resources and services.